OneWeb SL0622

operational
NORAD ID: 55163 Int'l Des: 2023-004 Owner: ONEWEBN Country: UK Constellation: oneweb
LEOCIRCULARPOLARONEWEB_TYPE

OneWeb SL0622について

説明を読み込み中...

リアルタイム位置

3D地球を読み込み中...

次回通過

高度履歴

Altitude vs Time

uPlot chart will show altitude changes over time

軌道要素

1 55163U 23004Z 26062.49939887 -.00000456 00000-0 -13221-2 0 9990
2 55163 87.8854 42.0767 0002264 66.8849 293.2518 13.11416857151940
Epoch: Mar 3, 2026 • Age: 28 hours

現在のステータス

高度 1229.5 km
速度 7.24 km/s
衛星直下点 -31.17°S, 174.1°E
打ち上げ日 Jan 10, 2023
運用期間 3.1 years
タイプ internet

技術仕様

分類 Payload
質量 148.00 kg
乾燥質量 140.00 kg
総質量 148.00 kg
長さ 1.30 m
直径 1.00 m
スパン 5.00 m
形状 Trapezoid+2 pan
製造者 ONEWUS
バスタイプ ARROW
フェーズステータス In Orbit
所有者/国 ONEWEBN/UK

大規模コンステレーション

Loading constellations...